[[{"header":{"parameterUnit":"m.s-1","parameterCategory":1,"la1":30.2992,"la2":30.254,"lo1":-89.0895,"lo2":-89.0443,"dy":0.0025,"dx":0.0025,"nx":19,"ny":19,"refTime":"2026-05-01T03:00:00:Z","depth":0,"parameterNumber":2,"parameterNumberName":"U-component_of_WINDS"},"data":[0,0,0,-4.842,-4.8423,-4.8555,-4.8555,-4.8737,-4.8739,0,0,0,0,0,0,0,0,0,0,0,-4.8393,-4.8395,-4.842,-4.8424,-4.8555,-4.8555,-4.8737,-4.8739,0,0,0,0,0,0,0,0,0,0,0,-4.8392,-4.8395,-4.8397,-4.8424,-4.8555,-4.8555,-4.8736,-4.8632,0,0,0,0,0,0,0,0,0,0,-4.8501,-4.8489,-4.8394,-4.8397,-4.8425,-4.8555,-4.8555,-4.8626,-4.8638,-4.8684,0,-4.8732,0,-4.8738,-4.8752,-4.8753,0,0,0,-4.8414,-4.8479,-4.8504,-4.8397,-4.8426,-4.8555,-4.8493,-4.8633,-4.8646,-4.87,-4.8734,-4.8741,-4.8741,-4.8753,-4.8754,-4.9059,-4.906,0,0,-4.8407,-4.8423,-4.8495,-4.8513,-4.8498,-4.8489,-4.8497,-4.864,-4.8678,-4.8735,-4.8744,-4.8744,-4.8755,-4.8756,-4.9057,-4.9059,0,0,0,-4.8393,-4.8418,-4.8439,-4.8506,-4.8529,-4.8493,-4.8503,-4.8671,-4.8677,-4.8746,-4.8747,-4.8756,-4.8758,-4.9055,-4.9058,-4.9166,0,0,0,-4.8388,-4.841,-4.8436,-4.8447,-4.8527,-4.8603,-4.853,-4.8667,-4.8682,-4.8746,-4.8756,-4.876,-4.9053,-4.9056,-4.9159,-4.9215,0,0,0,-4.8381,-4.8409,-4.8432,-4.8448,-4.8505,-4.86,-4.8613,-4.867,-4.8683,-4.8753,-4.8761,-4.9052,-4.9056,-4.9152,-4.9204,-4.9299,0,0,0,-4.8377,-4.8527,-4.8434,-4.8601,-4.8504,-4.8667,-4.8612,-4.8732,-4.8805,-4.8757,-4.9053,-4.9057,-4.915,-4.9197,-4.9292,-4.9383,-4.9422,0,0,-4.8575,-4.8552,-4.8648,-4.8569,-4.8752,-4.8645,-4.8843,-4.8893,-4.8884,-4.9,-4.9007,-4.9161,-4.9203,-4.9298,-4.9635,-4.9667,0,0,0,-4.8716,-4.8786,-4.883,-4.8901,-4.8944,-4.8984,-4.9003,-4.902,-4.9118,-4.8948,-4.922,-4.9245,-4.93,-4.9342,-4.9369,-4.9414,-4.9078,-4.9077,-4.9077,-4.9021,-4.9001,-4.9158,-4.9153,-4.9222,-4.9238,-4.929,-4.9317,-4.9277,-4.9341,-4.9376,-4.9584,-4.9634,-4.9654,-4.9701,-4.9422,-4.9422,-4.9422,-4.9423,-4.9309,-4.9404,-4.9345,-4.9477,-4.9453,-4.9562,-4.9581,-4.9549,-4.9645,-4.9557,-4.9604,-4.9509,-4.9689,-4.9729,-4.9431,-4.9429,-4.9428,-4.9428,-4.9427,-4.9507,-4.9549,-4.9568,-4.9665,-4.9741,-4.9729,-4.9824,-4.9799,-4.9775,-4.9822,-4.9855,-4.9853,-4.9847,-4.9839,-4.984,-4.984,-4.9841,-4.9842,-4.9842,-4.9706,-4.9724,-4.9808,-4.9863,-4.9903,-4.9952,-4.9965,-5.0003,-5.0038,-5.0012,-5.0012,-4.9964,-4.9711,-4.9648,-4.9853,-4.9851,-4.985,-4.9849,-4.9848,-5.0008,-4.9935,-5.0065,-5.0105,-5.0165,-5.024,-5.0205,-5.0283,-5.031,-5.0357,-5.0297,-5.0114,-5.0088,-5.0067,-5.0014,-5.0302,-5.0302,-5.0302,-5.0302,-5.0176,-5.0159,-5.0285,-5.035,-5.0409,-5.039,-5.0533,-5.0544,-5.0543,-5.0557,-5.0511,-5.0439,-5.0418,-5.0404,-5.0375,-5.0326,-5.0687,-5.0687,-5.0688,-5.036,-5.0347,-5.0477,-5.0475,-5.0518,-5.0555,-5.0689,-5.0762,-5.0746,-5.0703,-5.0567,-5.0551,-5.0434,-5.0398,-5.0354,-5.031,-5.0219,0,0]},{"header":{"parameterUnit":"m.s-1","parameterCategory":1,"la1":30.2992,"la2":30.254,"lo1":-89.0895,"lo2":-89.0443,"dy":0.0025,"dx":0.0025,"nx":19,"ny":19,"refTime":"2026-05-01T03:00:00:Z","depth":0,"parameterNumber":3,"parameterNumberName":"V-component_of_WINDS"},"data":[0,0,0,-3.2531,-3.2535,-3.2772,-3.2773,-3.3038,-3.304,0,0,0,0,0,0,0,0,0,0,0,-3.2442,-3.2443,-3.253,-3.2536,-3.2772,-3.2773,-3.3038,-3.304,0,0,0,0,0,0,0,0,0,0,0,-3.2441,-3.2443,-3.2444,-3.2536,-3.2771,-3.2773,-3.3037,-3.2871,0,0,0,0,0,0,0,0,0,0,-3.2648,-3.2549,-3.2443,-3.2444,-3.2538,-3.2771,-3.2773,-3.2864,-3.2882,-3.2917,0,-3.2946,0,-3.2997,-3.3056,-3.3057,0,0,0,-3.2549,-3.2534,-3.2615,-3.2445,-3.254,-3.2771,-3.2669,-3.2874,-3.2894,-3.294,-3.295,-3.2961,-3.3002,-3.3058,-3.3059,-3.3221,-3.3221,0,0,-3.2536,-3.2474,-3.2601,-3.2627,-3.2592,-3.2661,-3.2676,-3.2887,-3.2893,-3.2951,-3.2968,-3.3006,-3.3059,-3.3061,-3.3221,-3.3221,0,0,0,-3.2489,-3.2464,-3.2541,-3.2615,-3.266,-3.2668,-3.2685,-3.2884,-3.2914,-3.2971,-3.3009,-3.3061,-3.3064,-3.3221,-3.3221,-3.3168,0,0,0,-3.2482,-3.2438,-3.2534,-3.2499,-3.2656,-3.2776,-3.2676,-3.2899,-3.2925,-3.3008,-3.3061,-3.3066,-3.3221,-3.3221,-3.3169,-3.3153,0,0,0,-3.2433,-3.2432,-3.246,-3.2495,-3.2595,-3.2774,-3.2817,-3.2906,-3.2947,-3.3057,-3.3066,-3.3221,-3.3221,-3.3171,-3.3156,-3.3177,0,0,0,-3.2362,-3.2411,-3.2458,-3.2527,-3.2592,-3.274,-3.2816,-3.2929,-3.3017,-3.3062,-3.3221,-3.3221,-3.3171,-3.3157,-3.3178,-3.3184,-3.3181,0,0,-3.2389,-3.2412,-3.2457,-3.2506,-3.263,-3.2709,-3.2824,-3.2962,-3.3028,-3.3152,-3.3157,-3.3169,-3.3156,-3.3177,-3.3186,-3.3183,0,0,0,-3.2444,-3.2475,-3.2521,-3.2603,-3.271,-3.2798,-3.2925,-3.2976,-3.3084,-3.308,-3.3185,-3.3179,-3.3193,-3.3199,-3.3197,-3.3212,-3.3221,-3.3221,-3.3221,-3.2395,-3.2476,-3.2554,-3.2662,-3.2739,-3.2868,-3.2937,-3.3026,-3.3086,-3.3108,-3.3146,-3.3142,-3.3146,-3.3145,-3.316,-3.3156,-3.3156,-3.3156,-3.3156,-3.244,-3.2496,-3.2572,-3.2676,-3.2759,-3.2846,-3.2969,-3.3008,-3.3098,-3.3121,-3.3138,-3.3156,-3.3139,-3.3157,-3.3153,-3.3153,-3.3154,-3.3154,-3.3154,-3.2417,-3.2457,-3.2518,-3.2641,-3.2725,-3.2832,-3.2914,-3.2988,-3.3057,-3.3074,-3.312,-3.3121,-3.313,-3.309,-3.309,-3.309,-3.309,-3.309,-3.309,-3.2368,-3.2438,-3.25,-3.2614,-3.2673,-3.2761,-3.2886,-3.2946,-3.303,-3.3077,-3.3077,-3.3132,-3.3123,-3.3118,-3.3091,-3.309,-3.309,-3.309,-3.309,-3.2384,-3.2391,-3.2487,-3.2546,-3.2684,-3.276,-3.2852,-3.2966,-3.3025,-3.3062,-3.3113,-3.3095,-3.3123,-3.3125,-3.3122,-3.3097,-3.3097,-3.3097,-3.3097,-3.2363,-3.2384,-3.2497,-3.2586,-3.2682,-3.2773,-3.2873,-3.2969,-3.3069,-3.311,-3.3123,-3.3125,-3.3124,-3.3153,-3.3155,-3.3153,-3.3137,-3.3137,-3.3137,-3.2377,-3.241,-3.2484,-3.2583,-3.2694,-3.2787,-3.2883,-3.2979,-3.3094,-3.314,-3.3142,-3.3141,-3.3145,-3.3142,-3.319,-3.3191,-3.3189,0,0]}]]